Wind_Speed
55 55 55 56 56 54 53 51 50 50 48 45 44 42 41 41 40 40 39 38 38 38 38 38 39 40 39 39 40 41 43 45 47 49 51 53 55 56
55 54 53 55 57 55 52 51 51 50 48 45 44 43 42 40 39 40 39 38 38 38 38 39 40 39 39 39 40 42 44 45 47 50 52 54 55 56
53 53 52 54 55 53 51 50 50 50 49 47 45 43 42 40 40 39 38 37 37 38 39 40 39 38 38 39 41 42 44 46 48 51 53 54 55 56
51 51 52 54 53 51 50 50 50 50 50 48 45 43 42 41 41 40 38 38 38 38 38 39 38 38 38 40 41 43 45 47 49 52 54 55 55 55
51 51 51 52 51 50 49 49 49 50 50 49 46 43 41 40 40 39 37 38 37 37 38 39 38 38 39 41 42 43 46 48 50 52 54 55 55 55
50 50 50 50 49 49 49 48 48 49 49 47 45 43 40 39 39 38 37 37 36 37 37 37 38 39 40 41 42 44 46 49 51 53 54 54 54 53
47 48 49 49 49 49 48 47 47 48 47 45 44 43 40 39 38 37 37 36 36 35 36 37 38 39 40 41 42 45 47 50 51 52 53 53 52 51
45 47 48 49 50 49 47 46 46 46 44 45 44 41 39 38 37 37 36 36 35 35 36 37 38 39 40 41 43 45 48 50 51 51 50 50 49 50
42 44 46 46 49 47 45 44 44 43 42 43 41 39 39 38 36 36 36 35 35 35 35 37 38 39 40 41 43 45 47 49 48 48 48 48 48 49
40 42 44 44 45 44 43 42 41 40 40 40 39 39 38 37 36 34 35 36 35 35 35 36 37 38 39 41 43 45 45 46 45 45 46 47 48 48
41 41 42 42 42 42 41 40 39 40 39 39 37 37 36 35 35 34 34 35 34 34 34 35 36 37 38 40 41 42 43 44 43 44 45 47 47 48
40 40 40 39 39 40 40 39 39 38 38 37 37 36 34 34 34 33 33 33 33 33 33 34 35 36 37 39 41 41 42 42 42 43 45 46 46 48
38 38 37 37 38 39 39 38 37 37 36 35 35 34 33 33 32 32 33 32 32 32 33 33 34 35 37 39 40 40 40 41 42 43 44 45 46 47
34 35 35 35 37 37 36 37 37 36 35 34 34 33 32 32 32 32 32 32 32 31 31 32 33 34 36 37 38 39 40 41 42 42 43 44 44 45
32 33 33 34 35 34 34 34 35 35 34 33 32 31 31 31 31 31 31 30 30 30 30 31 32 34 35 36 37 38 39 40 40 40 41 42 42 44
31 33 33 33 32 32 32 33 34 34 33 32 31 31 30 30 30 30 30 30 30 30 30 31 32 33 33 34 35 37 38 38 38 39 40 40 41 42
31 32 31 31 30 30 31 32 32 32 31 30 30 30 29 29 29 29 28 28 28 29 29 29 30 31 32 33 35 36 37 36 36 37 38 39 40 40
30 30 29 29 29 29 30 30 31 30 29 29 28 28 28 28 27 27 27 26 26 27 27 28 29 31 32 33 34 35 34 34 35 36 37 38 38 38
29 29 29 28 27 28 28 29 29 29 28 27 26 26 26 26 25 25 25 24 24 25 26 27 28 29 30 31 32 33 33 33 34 35 35 35 36 36
27 28 29 28 27 27 27 28 28 28 27 26 25 25 24 24 24 23 23 23 23 24 25 26 27 28 28 30 31 30 30 31 32 33 33 34 34 35
26 27 28 27 27 27 27 27 27 26 26 25 23 23 23 22 22 21 21 21 21 22 24 24 25 26 27 28 28 27 28 29 30 31 32 32 33 34
24 26 26 26 26 26 26 26 25 25 24 23 22 22 21 20 20 20 20 21 21 22 23 23 24 24 25 25 25 26 26 28 29 30 30 31 32 32
25 24 23 24 24 26 25 24 24 24 22 21 20 20 19 19 19 19 20 20 21 21 22 23 22 22 22 23 23 24 25 26 27 28 29 30 30 30
Wind_Direction
234 234 234 233 232 234 237 237 238 238 240 242 245 249 252 255 260 265 268 271 276 280 284 288 291 293 295 297 300 303 305 308 311 312 314 315 317 317
233 233 233 233 232 233 235 236 236 237 238 240 243 247 250 255 259 263 266 270 274 278 283 287 289 292 294 297 300 303 306 309 311 313 314 316 317 318
231 231 232 232 231 233 234 236 236 236 236 238 241 245 248 253 257 261 264 268 272 277 282 286 287 290 294 297 300 303 307 310 312 314 316 317 318 318
230 230 230 230 231 231 233 234 235 236 236 237 240 244 247 251 255 259 263 266 271 277 281 284 286 289 294 297 300 304 307 310 312 314 316 317 317 317
228 228 228 230 229 230 231 233 235 236 237 238 239 244 247 250 254 258 263 267 271 276 281 284 286 290 294 297 301 305 308 311 312 314 316 317 317 318
228 227 227 228 229 229 231 232 234 236 237 238 240 245 247 250 253 258 263 267 271 276 280 283 286 291 294 298 303 306 309 311 313 315 316 317 317 318
227 226 227 227 227 229 231 233 234 235 237 239 241 244 247 250 254 260 264 267 272 277 281 283 288 292 295 299 303 306 309 311 313 315 317 318 318 319
226 226 226 226 226 228 230 233 235 235 237 239 241 245 246 250 254 259 263 268 272 277 281 285 289 293 297 300 304 307 310 312 314 316 318 319 320 320
224 225 224 225 226 228 230 232 234 235 238 240 241 243 245 249 255 260 264 268 272 277 281 286 290 294 299 302 304 308 311 313 315 317 319 320 321 321
224 223 223 224 225 228 229 231 233 233 236 238 240 242 245 251 255 258 264 268 272 277 281 287 291 297 300 303 305 309 312 314 316 318 320 321 322 322
223 223 222 222 224 226 228 230 230 230 235 238 240 242 245 250 253 258 263 268 273 277 282 288 293 298 302 305 307 311 314 315 317 319 321 322 322 323
221 221 221 223 224 225 228 228 228 229 232 236 238 240 244 249 253 258 263 268 273 278 283 289 294 299 303 306 309 312 314 316 318 319 321 322 323 325
221 221 222 223 224 225 227 227 227 228 231 233 236 240 243 248 254 257 262 268 274 279 285 290 295 300 304 307 310 313 315 317 318 319 321 323 324 326
220 220 220 220 219 222 226 227 228 229 230 231 235 239 244 249 254 258 263 269 274 279 285 291 297 302 305 308 311 314 316 317 318 319 321 323 325 327
219 218 218 219 218 220 223 226 229 230 230 232 236 240 245 249 254 259 263 267 274 279 286 293 298 303 306 309 312 315 316 318 319 320 323 324 326 328
218 215 216 216 217 219 222 226 228 228 228 231 236 241 246 250 254 258 263 269 276 281 286 292 298 302 306 310 312 315 317 320 321 322 324 325 327 329
213 213 212 213 216 219 223 225 227 226 227 231 236 240 245 250 254 259 265 273 279 282 286 292 297 302 307 310 313 317 319 321 322 323 325 326 329 331
210 211 211 212 217 220 223 225 226 226 228 232 236 240 244 249 254 260 266 273 277 282 287 292 298 303 307 311 314 317 319 321 322 324 326 329 331 333
210 211 212 214 217 220 222 223 225 226 228 231 236 240 244 249 255 261 267 273 279 284 287 293 298 303 307 311 314 316 318 321 323 326 329 332 333 335
208 211 213 216 219 219 219 219 221 224 226 230 236 241 245 250 256 261 268 274 280 284 290 295 299 304 308 312 314 315 318 322 326 329 332 333 335 336
206 211 213 215 218 218 217 216 218 223 227 232 238 242 246 249 254 260 267 274 280 286 292 297 301 304 309 312 314 317 320 324 328 331 333 335 337 338
203 207 211 214 216 218 218 218 220 224 228 234 238 242 244 247 252 259 267 274 280 287 293 298 301 305 310 313 316 320 323 327 330 333 335 337 338 339
202 205 208 212 215 217 218 221 224 226 230 234 236 238 241 244 250 259 266 272 280 287 293 298 301 306 311 315 317 321 325 328 332 335 337 338 340 342
Height
5612 5620 5626 5634 5643 5650 5657 5664 5671 5677 5684 5689 5693 5696 5698 5700 5701 5702 5702 5702 5701 5699 5698 5695 5692 5689 5685 5681 5677 5672 5667 5661 5655 5648 5640 5632 5623 5614
5600 5607 5614 5622 5630 5638 5646 5653 5659 5666 5673 5679 5682 5686 5688 5690 5692 5693 5693 5693 5692 5691 5689 5687 5684 5680 5677 5673 5669 5664 5658 5652 5645 5638 5630 5621 5613 5603
5588 5595 5603 5611 5619 5627 5635 5642 5648 5655 5662 5668 5671 5675 5678 5680 5682 5683 5684 5684 5683 5682 5680 5678 5675 5672 5668 5665 5660 5655 5649 5643 5636 5628 5619 5611 5602 5593
5576 5584 5591 5599 5608 5616 5624 5631 5638 5644 5651 5656 5661 5665 5668 5671 5673 5674 5675 5675 5674 5673 5672 5670 5667 5664 5660 5656 5651 5646 5640 5633 5626 5618 5610 5602 5592 5582
5566 5573 5581 5589 5597 5606 5613 5621 5628 5634 5640 5646 5651 5655 5659 5661 5663 5665 5666 5666 5665 5665 5663 5661 5658 5655 5651 5647 5642 5637 5631 5624 5617 5609 5600 5591 5582 5572
5556 5563 5571 5579 5588 5596 5603 5610 5617 5624 5630 5635 5641 5645 5649 5652 5655 5656 5657 5657 5656 5656 5654 5652 5649 5646 5643 5638 5634 5628 5622 5615 5607 5599 5590 5581 5572 5563
5547 5554 5562 5571 5579 5586 5594 5601 5608 5614 5620 5625 5631 5636 5640 5643 5646 5648 5648 5648 5647 5647 5645 5644 5641 5638 5634 5629 5624 5619 5612 5605 5597 5589 5580 5571 5562 5553
5538 5546 5554 5562 5570 5577 5584 5592 5599 5605 5611 5617 5622 5627 5631 5635 5637 5639 5639 5640 5640 5639 5637 5635 5632 5629 5625 5621 5616 5610 5603 5596 5588 5580 5571 5562 5553 5545
5530 5538 5546 5553 5561 5568 5575 5582 5589 5596 5602 5608 5614 5619 5623 5626 5629 5630 5631 5631 5632 5631 5629 5626 5623 5620 5616 5612 5606 5601 5594 5587 5579 5571 5563 5554 5545 5536
5523 5531 5538 5546 5553 5560 5568 5574 5581 5588 5594 5599 5606 5611 5614 5617 5620 5622 5623 5623 5623 5622 5620 5618 5615 5611 5607 5603 5598 5592 5585 5578 5570 5562 5554 5546 5537 5528
5516 5523 5530 5538 5546 5553 5559 5566 5573 5579 5585 5592 5597 5601 5605 5608 5611 5613 5615 5615 5615 5614 5612 5610 5607 5603 5599 5594 5589 5583 5576 5569 5562 5554 5546 5538 5530 5521
5510 5517 5524 5532 5538 5545 5552 5558 5565 5572 5578 5583 5588 5593 5597 5600 5603 5606 5607 5608 5607 5606 5604 5602 5599 5595 5591 5585 5580 5574 5568 5561 5554 5546 5539 5531 5522 5513
5504 5511 5518 5524 5531 5538 5544 5551 5558 5564 5570 5575 5581 5585 5589 5593 5596 5598 5599 5600 5599 5598 5597 5594 5591 5587 5582 5578 5572 5566 5559 5553 5546 5539 5531 5523 5514 5505
5498 5505 5512 5518 5525 5531 5537 5544 5550 5556 5561 5567 5572 5577 5581 5585 5588 5590 5591 5591 5591 5590 5588 5586 5583 5579 5575 5570 5565 5558 5552 5545 5539 5531 5524 5516 5507 5498
5492 5499 5506 5512 5518 5524 5530 5536 5542 5548 5554 5560 5565 5570 5574 5577 5580 5582 5583 5583 5583 5582 5580 5578 5575 5571 5567 5562 5557 5551 5545 5539 5531 5524 5516 5508 5500 5492
5486 5493 5500 5506 5512 5518 5524 5530 5535 5541 5547 5553 5558 5562 5566 5569 5572 5574 5575 5575 5575 5574 5572 5570 5567 5564 5559 5554 5549 5544 5538 5531 5524 5517 5509 5501 5493 5485
5482 5488 5495 5501 5507 5512 5518 5524 5529 5534 5540 5545 5550 5555 5558 5562 5565 5566 5567 5567 5567 5566 5565 5562 5559 5556 5552 5547 5542 5536 5530 5524 5517 5510 5503 5495 5487 5479
5478 5484 5490 5496 5502 5508 5513 5518 5523 5529 5534 5539 5544 5548 5551 5554 5557 5559 5560 5560 5560 5559 5557 5555 5552 5548 5544 5540 5535 5529 5524 5517 5511 5504 5497 5489 5482 5474
5473 5479 5486 5492 5498 5503 5508 5513 5518 5523 5528 5533 5537 5541 5544 5547 5550 5551 5552 5553 5552 5551 5550 5548 5545 5541 5538 5533 5528 5523 5517 5511 5505 5498 5491 5484 5477 5469
5469 5475 5482 5488 5493 5499 5503 5508 5513 5518 5522 5527 5531 5535 5538 5541 5543 5544 5545 5546 5545 5544 5543 5540 5538 5535 5531 5527 5522 5517 5511 5506 5500 5493 5486 5479 5472 5465
5465 5471 5477 5483 5489 5494 5499 5503 5508 5513 5517 5521 5525 5528 5532 5534 5536 5537 5539 5539 5539 5538 5536 5534 5531 5528 5525 5521 5516 5511 5506 5501 5495 5489 5482 5475 5468 5461
5462 5467 5473 5478 5484 5489 5494 5498 5503 5507 5511 5515 5519 5522 5525 5528 5530 5531 5532 5533 5532 5531 5530 5528 5525 5522 5519 5515 5511 5506 5502 5496 5490 5484 5478 5472 5465 5458
5458 5464 5469 5474 5479 5484 5489 5493 5498 5502 5506 5510 5513 5517 5519 5522 5524 5525 5526 5526 5526 5525 5524 5522 5520 5517 5513 5510 5506 5502 5497 5492 5487 5481 5475 5468 5462 5455